sat.trackr.live / text

‹ back to catalog

STARLINK-5429

NORAD 54801 · 2022-175AV

PAYLOAD ACTIVE UNKNOWN

§ Identity

Operator
Country
US
Launch date
2022-12-17
Launch site
AFETR
Launch vehicle
Mass (kg)
RCS (m²)

Purposes: comms

External: N2YO · Heavens-Above · Gunter

§ Orbital elements

Epoch: 2026-09-20T08:05:11.922720Z

Period
94.01 min
Inclination
53.1578°
Eccentricity
0.0001284
Mean motion
15.31703392 rev/d
Perigee alt
469.9 km
Apogee alt
471.6 km
Semi-major
6,848.9 km
B*
3.6745e-5
RAAN
235.6726°
Arg perigee
86.8498°
Mean anomaly
273.2651°
Rev number
20,950

§ Raw data

STARLINK-54291 54801U 22175AV  26263.33694355  .00000775  00000+0  36745-4 0  99992 54801  53.1578 235.6726 0001284  86.8498 273.2651 15.31703392209504

JSON: /api/v1/satellites/54801 · /tle

For live sub-satellite position, see the globe view (requires WebGL).

§ Visibility from observer

Set your observer location to see the next 7 days of passes ≥ 10°. The values pass through the URL so the page stays shareable.

No JS? Fill the form by hand. The geolocation button needs JavaScript.